スキッフ彗星

C/2000 Y2 ( Skiff )

English version
Home page
Updated on August 4, 2001

---------------------------------------------------------------------

・ プロフィール

発見日 2000年12月27日
発見光度 17.2等
発見者 B. Skiff (LONEOS)

・ 軌道要素

Epoch 2001 Apr. 1.0 TT = JDT 2452000.5
T 2001 Mar. 21.78749 TT                                 Marsden
q   2.7688341            (2000.0)            P               Q
z  +0.0020435      Peri.  326.81047     -0.88705792     -0.46116464
 +/-0.0000106      Node   185.84928     +0.45589549     -0.86776769
e   0.9943419      Incl.   12.08739     +0.07271558     -0.18521991

・ 星図

・ 光度変化

        m1 = 11.0 + 5 logΔ + 10.0 log r

---------------------------------------------------------------------

軌道要素は Dr. Brian G. Marsden の計算によるもので、 M.P.E.C. 2001-D21 に掲載されたものです。
星図は StellaNavigator Ver.2.0 for Windows (アストロアーツ 編著 / アスキー出版局刊) で作成したものです。
光度グラフはComet for Windowsで作成したものです。

---------------------------------------------------------------------

Copyright(C) Seiichi Yoshida (comet@aerith.net). All rights reserved.